SeaSat 1 - Orbit

View from above orbital plane
View from above orbital plane
View from above satellite
View from above satellite

Ground track
Ground track

The orbit data is extracted from the following two-line orbital elements,

1 10967U 78064A   13168.50589865  .00000022  00000-0  47539-4 0   349
2 10967 107.9931 130.7150 0002753 284.4976 178.3266 14.42721902835875
Epoch (UTC): 17 June 2013 12:08:29
Eccentricity: 0.0002753
inclination: 107.9931°
perigee height: 747 km
apogee height: 751 km
right ascension of ascending node: 130.7150°
argument of perigee: 284.4976°
revolutions per day: 14.42721902
mean anomaly at epoch: 178.3266°
orbit number at epoch: 83587

The dashed part of the orbit path shows where the satellite is in the earth's shadow,  

Developed and maintained by Chris Peat, Heavens-Above GmbH. Please read the updated FAQ before sending e-mail. Imprint. DLR